Regional Weather Roundup
Issued by NWS Sioux Falls, SD

Home | Current Version | Previous Version | Graphics & Text | Print | Product List | Glossary On
Versions: 1 2 3 4 5 6 7 8 9 10 11 12 13 14 15 16 17 18 19 20 21 22 23 24 25 26 27 28 29 30 31 32 33 34 35 36 37 38 39 40 41 42 43 44 45 46 47 48 49 50
000
ASUS43 KFSD 280402
RWRFSD

WEATHER ROUNDUP FOR SE SOUTH DAKOTA/SW MINNESOTA/NW IOWA
NATIONAL WEATHER SERVICE SIOUX FALLS SD
1100 PM CDT MON MAR 27 2017

NOTE: "FAIR" INDICATES FEW OR NO CLOUDS BELOW 12,000 FEET WITH NO
SIGNIFICANT WEATHER AND OR OBSTRUCTIONS TO VISIBILITY.


SDZ038>040-050-052>070-280500-
SOUTHEAST SOUTH DAKOTA

CITY           SKY/WX    TMP DP  RH WIND       PRES   REMARKS
BROOKINGS      PTCLDY    45  36  70 E3        30.00R
CHAMBERLAIN    NOT AVBL
HURON          CLEAR     42  36  79 E6        29.99R
MADISON        FAIR      41  41 100 S6        30.00R
MITCHELL       CLEAR     45  37  73 SE7       29.99R
SIOUX FALLS    PTCLDY    46  39  76 S8        30.01R
WINNER         CLOUDY    53  37  54 SE13      29.94R
YANKTON        CLEAR     45  37  76 SE7       30.00S
$$

MNZ071-072-080-081-089-090-097-098-280500-
SOUTHWEST MINNESOTA

CITY           SKY/WX    TMP DP  RH WIND       PRES   REMARKS
FAIRMONT       CLEAR     38  37  97 CALM      30.01S
JACKSON        PTCLDY    39  36  87 CALM      30.01S
LUVERNE        CLEAR     37  34  87 CALM      30.02R
MARSHALL       MOCLDY    40  36  86 W3        30.02R
MONTEVIDEO     PTCLDY    43  34  70 CALM      30.04R
PIPESTONE      CLOUDY    45  36  70 S3        30.01R
REDWOOD FALLS  PTCLDY    48  33  56 NE3       30.02R
TRACY          PTCLDY    44  38  79 SW7       30.01S
WINDOM         CLOUDY    37  36  93 CALM      30.01R
WORTHINGTON    CLEAR     38  35  89 SW7       30.02R
$$

IAZ001>003-012>014-020>022-031-032-NEZ013-014-SDZ071-280500-
NORTHWEST IOWA

CITY           SKY/WX    TMP DP  RH WIND       PRES   REMARKS
CHEROKEE       CLOUDY    43  40  88 NE3       30.01S
DENISON        CLOUDY    46  41  81 NE6       30.03R
ESTHERVILLE    CLEAR     37  37 100 W3        30.00S
LE MARS        CLEAR     37  36  93 CALM      30.03R
ORANGE CITY    CLEAR     39  37  93 CALM      30.02R
SHELDON        PTCLDY    39  36  87 CALM      30.00S
SIOUX CITY     CLEAR     40  38  93 CALM      30.02R
SPENCER        CLEAR     42  39  89 CALM      30.01R
STORM LAKE     CLOUDY    46  41  81 NE3       30.01R
$$

ABBREVIATIONS USED IN REMARKS
   TC - TEMPERATURE IN CELSIUS
  WCI - WIND CHILL INDEX
   HX - HEAT INDEX
  VSB - VISIBILITY





USA.gov is the U.S. government's official web portal to all federal, state and local government web resources and services.